| time (UTC) | temp F | wind direction | speed knots | gust knots | rain 1hr in | rain 24hr in | rain mn in | humidity % | barometer mb |
| 20260506114300 | 49 | 101 | 0.9 | 4.3 | 0.00 | 0.00 | 0.00 | 60 | 1020.5 |
| 20260506113757 | 49 | 92 | 0.9 | 4.3 | 0.00 | 0.00 | 0.00 | 61 | 1020.6 |
| 20260506113523 | 49 | 200 | 0.9 | 3.5 | 0.00 | 0.00 | 0.00 | 62 | 1020.5 |
| 20260506112758 | 49 | 146 | 1.7 | 5.2 | 0.00 | 0.00 | 0.00 | 62 | 1020.5 |
| 20260506112255 | 49 | 134 | 0.9 | 5.2 | 0.00 | 0.00 | 0.00 | 62 | 1020.5 |
| 20260506111755 | 49 | 74 | 0.9 | 3.5 | 0.00 | 0.00 | 0.00 | 61 | 1020.4 |
| 20260506111254 | 49 | 180 | 1.7 | 7.0 | 0.00 | 0.00 | 0.00 | 61 | 1020.2 |
| 20260506110755 | 49 | 247 | 0.9 | 7.0 | 0.00 | 0.00 | 0.00 | 61 | 1020.1 |
| 20260506110255 | 49 | 238 | 0.9 | 2.6 | 0.00 | 0.00 | 0.00 | 62 | 1020.0 |
| 20260506105256 | 49 | 263 | 0.9 | 3.5 | 0.00 | 0.00 | 0.00 | 60 | 1020.1 |
| 20260506105019 | 49 | 271 | 0.9 | 3.5 | 0.00 | 0.00 | 0.00 | 59 | 1020.2 |
| 20260506104253 | 49 | 168 | 0.9 | 1.7 | 0.00 | 0.00 | 0.00 | 60 | 1020.2 |
| 20260506103753 | 49 | 168 | 0.9 | 2.6 | 0.00 | 0.00 | 0.00 | 62 | 1020.1 |
| 20260506103254 | 49 | 145 | 0.0 | 2.6 | 0.00 | 0.00 | 0.00 | 63 | 1020.0 |
| 20260506103014 | 49 | 103 | 0.9 | 5.2 | 0.00 | 0.00 | 0.00 | 63 | 1020.1 |
| 20260506102253 | 49 | 156 | 0.9 | 5.2 | 0.00 | 0.00 | 0.00 | 64 | 1020.1 |
| 20260506101752 | 49 | 292 | 0.9 | 3.5 | 0.00 | 0.00 | 0.00 | 61 | 1020.2 |
| 20260506101253 | 49 | 105 | 0.9 | 3.5 | 0.00 | 0.00 | 0.00 | 62 | 1020.1 |
| 20260506101013 | 49 | 155 | 0.9 | 3.5 | 0.00 | 0.00 | 0.00 | 63 | 1020.1 |
| 20260506100255 | 49 | 226 | 0.9 | 3.5 | 0.00 | 0.00 | 0.00 | 62 | 1020.1 |
| 20260506095748 | 49 | 119 | 0.9 | 3.5 | 0.00 | 0.00 | 0.00 | 63 | 1020.0 |
| 20260506095249 | 49 | 200 | 0.9 | 3.5 | 0.00 | 0.00 | 0.00 | 66 | 1020.1 |
| 20260506094749 | 49 | 196 | 0.9 | 4.3 | 0.00 | 0.00 | 0.00 | 67 | 1020.1 |
| 20260506094249 | 49 | 63 | 0.9 | 4.3 | 0.00 | 0.00 | 0.00 | 67 | 1020.0 |
| 20260506093750 | 49 | 190 | 0.9 | 3.5 | 0.00 | 0.00 | 0.00 | 70 | 1020.0 |
| 20260506093248 | 49 | 202 | 0.9 | 3.5 | 0.00 | 0.00 | 0.00 | 70 | 1020.0 |
| 20260506092749 | 49 | 49 | 0.9 | 3.5 | 0.00 | 0.00 | 0.00 | 72 | 1019.9 |
| 20260506092508 | 49 | 58 | 0.9 | 3.5 | 0.00 | 0.00 | 0.00 | 70 | 1019.8 |
| 20260506091519 | 50 | 96 | 0.9 | 3.5 | 0.00 | 0.00 | 0.00 | 68 | 1019.8 |
| 20260506090744 | 50 | 113 | 0.9 | 3.5 | 0.00 | 0.00 | 0.00 | 70 | 1019.9 |
| 20260506090510 | 50 | 227 | 0.9 | 5.2 | 0.00 | 0.00 | 0.00 | 70 | 1019.9 |
| 20260506085743 | 50 | 90 | 1.7 | 5.2 | 0.00 | 0.00 | 0.00 | 69 | 1019.9 |
| 20260506085241 | 50 | 157 | 1.7 | 4.3 | 0.00 | 0.00 | 0.00 | 69 | 1019.8 |
| 20260506084740 | 50 | 92 | 1.7 | 4.3 | 0.00 | 0.00 | 0.00 | 70 | 1019.9 |
| 20260506084241 | 50 | 176 | 1.7 | 7.8 | 0.00 | 0.00 | 0.00 | 70 | 1019.8 |
| 20260506083739 | 50 | 107 | 1.7 | 7.8 | 0.00 | 0.00 | 0.00 | 69 | 1019.8 |
| 20260506083237 | 50 | 94 | 1.7 | 4.3 | 0.00 | 0.00 | 0.00 | 69 | 1019.7 |
| 20260506082736 | 50 | 19 | 1.7 | 6.1 | 0.00 | 0.00 | 0.00 | 69 | 1019.7 |
| 20260506082455 | 50 | 136 | 1.7 | 6.1 | 0.00 | 0.00 | 0.00 | 69 | 1019.7 |
| 20260506081738 | 50 | 11 | 1.7 | 5.2 | 0.00 | 0.00 | 0.00 | 69 | 1019.7 |
| 20260506081235 | 50 | 91 | 1.7 | 5.2 | 0.00 | 0.00 | 0.00 | 70 | 1019.6 |
| 20260506080734 | 50 | 246 | 1.7 | 4.3 | 0.00 | 0.00 | 0.00 | 70 | 1019.7 |
| 20260506080235 | 50 | 71 | 1.7 | 5.2 | 0.00 | 0.00 | 0.00 | 70 | 1019.7 |
| 20260506073204 | 50 | 165 | 0.9 | 4.3 | 0.00 | 0.00 | 0.00 | 71 | 1019.5 |
| 20260506072705 | 50 | 197 | 1.7 | 5.2 | 0.00 | 0.00 | 0.00 | 69 | 1019.3 |
| 20260506072205 | 50 | 302 | 0.9 | 5.2 | 0.00 | 0.00 | 0.00 | 68 | 1019.5 |
| 20260506071704 | 50 | 129 | 0.9 | 2.6 | 0.00 | 0.00 | 0.00 | 67 | 1019.2 |
| 20260506071204 | 50 | 121 | 0.0 | 1.7 | 0.00 | 0.00 | 0.00 | 71 | 1019.2 |
| 20260506070705 | 50 | 125 | 0.9 | 3.5 | 0.00 | 0.00 | 0.00 | 69 | 1019.2 |
| 20260506070204 | 50 | 123 | 0.9 | 3.5 | 0.00 | 0.00 | 0.00 | 66 | 1019.2 |
| 20260506062201 | 50 | 234 | 0.0 | 0.0 | 0.00 | 0.00 | 0.00 | 76 | 1018.9 |
| 20260506061919 | 50 | 234 | 0.0 | 0.0 | 0.00 | 0.00 | 0.00 | 76 | 1018.9 |
| 20260506061157 | 50 | 234 | 0.0 | 1.7 | 0.00 | 0.00 | 0.00 | 77 | 1018.9 |
| 20260506060659 | 50 | 233 | 0.0 | 1.7 | 0.00 | 0.00 | 0.00 | 77 | 1018.8 |
| 20260506060151 | 50 | 235 | 0.0 | 0.0 | 0.00 | 0.00 | 0.00 | 77 | 1018.8 |
| 20260506050810 | 52 | 333 | 0.0 | 0.0 | 0.00 | 0.00 | 0.00 | 80 | 1018.2 |
| 20260506045028 | 53 | 333 | 0.0 | 0.0 | 0.00 | 0.00 | 0.00 | 80 | 1018.1 |
| 20260506044521 | 53 | 333 | 0.0 | 2.6 | 0.00 | 0.00 | 0.00 | 80 | 1018.0 |
| 20260506044015 | 53 | 333 | 0.0 | 2.6 | 0.00 | 0.00 | 0.00 | 79 | 1017.8 |
| 20260506043508 | 54 | 337 | 0.0 | 1.7 | 0.00 | 0.00 | 0.00 | 79 | 1017.8 |
| 20260506043224 | 54 | 327 | 0.0 | 1.7 | 0.00 | 0.00 | 0.00 | 77 | 1017.7 |
| 20260506042720 | 55 | 323 | 0.9 | 3.5 | 0.00 | 0.00 | 0.00 | 77 | 1017.6 |
| 20260506041952 | 55 | 265 | 0.9 | 3.5 | 0.00 | 0.00 | 0.00 | 75 | 1017.4 |
| 20260506041446 | 56 | 255 | 0.9 | 2.6 | 0.00 | 0.00 | 0.00 | 74 | 1017.3 |
| 20260506040940 | 57 | 263 | 0.9 | 3.5 | 0.00 | 0.00 | 0.00 | 72 | 1017.2 |
| 20260506040434 | 58 | 260 | 1.7 | 3.5 | 0.00 | 0.00 | 0.00 | 69 | 1017.2 |
| 20260506035929 | 58 | 260 | 2.6 | 4.3 | 0.00 | 0.00 | 0.00 | 68 | 1017.0 |
| 20260506034916 | 60 | 221 | 1.7 | 7.0 | 0.00 | 0.00 | 0.00 | 63 | 1016.9 |
| 20260506034635 | 62 | 244 | 0.0 | 3.5 | 0.00 | 0.00 | 0.00 | 54 | 1016.8 |
| 20260506033903 | 62 | 46 | 0.0 | 0.9 | 0.00 | 0.00 | 0.00 | 50 | 1016.7 |
| 20260506033620 | 63 | 46 | 0.0 | 1.7 | 0.00 | 0.00 | 0.00 | 51 | 1016.7 |
| 20260506032345 | 64 | 46 | 0.0 | 0.9 | 0.00 | 0.00 | 0.00 | 47 | 1016.4 |
| 20260506031838 | 65 | 46 | 0.0 | 0.9 | 0.00 | 0.00 | 0.00 | 46 | 1016.3 |
| 20260506031334 | 66 | 46 | 0.0 | 0.9 | 0.00 | 0.00 | 0.00 | 45 | 1016.2 |
| 20260506030828 | 67 | 46 | 0.0 | 0.9 | 0.00 | 0.00 | 0.00 | 43 | 1016.1 |
| 20260506030323 | 67 | 45 | 0.0 | 2.6 | 0.00 | 0.00 | 0.00 | 41 | 1016.0 |
| 20260506030038 | 68 | 45 | 0.0 | 2.6 | 0.00 | 0.00 | 0.00 | 39 | 1016.0 |
| 20260506025531 | 69 | 43 | 0.9 | 2.6 | 0.00 | 0.00 | 0.00 | 40 | 1015.9 |
| 20260506024803 | 69 | 39 | 0.9 | 2.6 | 0.00 | 0.00 | 0.00 | 37 | 1015.8 |
| 20260506024259 | 70 | 29 | 0.9 | 2.6 | 0.00 | 0.00 | 0.00 | 37 | 1015.6 |
| 20260506023759 | 71 | 21 | 0.9 | 5.2 | 0.00 | 0.00 | 0.00 | 36 | 1015.5 |
| 20260506023300 | 71 | 107 | 0.9 | 5.2 | 0.00 | 0.00 | 0.00 | 37 | 1015.3 |
| 20260506022757 | 71 | 105 | 1.7 | 5.2 | 0.00 | 0.00 | 0.00 | 35 | 1015.3 |
| 20260506022257 | 72 | 74 | 2.6 | 5.2 | 0.00 | 0.00 | 0.00 | 35 | 1015.3 |
| 20260506021757 | 72 | 37 | 1.7 | 4.3 | 0.00 | 0.00 | 0.00 | 34 | 1015.2 |
| 20260506021258 | 73 | 57 | 0.9 | 3.5 | 0.00 | 0.00 | 0.00 | 35 | 1015.2 |
| 20260506020755 | 73 | 116 | 1.7 | 7.8 | 0.00 | 0.00 | 0.00 | 34 | 1015.2 |
| 20260506020520 | 73 | 116 | 2.6 | 7.8 | 0.00 | 0.00 | 0.00 | 33 | 1015.1 |
| 20260506015752 | 73 | 134 | 2.6 | 7.0 | 0.00 | 0.00 | 0.00 | 33 | 1015.0 |
| 20260506015251 | 73 | 108 | 3.5 | 8.7 | 0.00 | 0.00 | 0.00 | 33 | 1015.1 |
| 20260506015019 | 73 | 119 | 3.5 | 9.6 | 0.00 | 0.00 | 0.00 | 33 | 1014.9 |
| 20260506014516 | 74 | 119 | 3.5 | 9.6 | 0.00 | 0.00 | 0.00 | 33 | 1014.9 |
| 20260506013751 | 74 | 88 | 3.5 | 8.7 | 0.00 | 0.00 | 0.00 | 33 | 1014.6 |
| 20260506013516 | 74 | 58 | 3.5 | 9.6 | 0.00 | 0.00 | 0.00 | 33 | 1014.6 |
| 20260506013017 | 74 | 94 | 3.5 | 9.6 | 0.00 | 0.00 | 0.00 | 32 | 1014.6 |
| 20260506012252 | 74 | 46 | 2.6 | 7.0 | 0.00 | 0.00 | 0.00 | 32 | 1014.5 |
| 20260506011747 | 75 | 130 | 3.5 | 11.3 | 0.00 | 0.00 | 0.00 | 32 | 1014.3 |
| 20260506011247 | 75 | 170 | 4.3 | 11.3 | 0.00 | 0.00 | 0.00 | 32 | 1014.3 |
| 20260506010746 | 75 | 144 | 3.5 | 8.7 | 0.00 | 0.00 | 0.00 | 31 | 1014.3 |
| 20260506010246 | 75 | 144 | 3.5 | 8.7 | 0.00 | 0.00 | 0.00 | 32 | 1014.3 |
| 20260506010011 | 75 | 119 | 4.3 | 9.6 | 0.00 | 0.00 | 0.00 | 32 | 1014.4 |
| 20260506005246 | 75 | 113 | 4.3 | 9.6 | 0.00 | 0.00 | 0.00 | 32 | 1014.3 |
| 20260506004747 | 75 | 159 | 4.3 | 8.7 | 0.00 | 0.00 | 0.00 | 32 | 1014.3 |
| 20260506004245 | 75 | 100 | 3.5 | 10.4 | 0.00 | 0.00 | 0.00 | 33 | 1014.4 |
| 20260506003744 | 75 | 132 | 3.5 | 10.4 | 0.00 | 0.00 | 0.00 | 32 | 1014.3 |
| 20260506003244 | 76 | 334 | 4.3 | 9.6 | 0.00 | 0.00 | 0.00 | 31 | 1014.2 |
| 20260506002745 | 76 | 136 | 3.5 | 9.6 | 0.00 | 0.00 | 0.00 | 31 | 1014.2 |
| 20260506002245 | 76 | 0 | 3.5 | 7.8 | 0.00 | 0.00 | 0.00 | 31 | 1014.2 |
| 20260506001745 | 76 | 355 | 3.5 | 11.3 | 0.00 | 0.00 | 0.00 | 32 | 1014.3 |
| 20260506001246 | 76 | 5 | 2.6 | 11.3 | 0.00 | 0.00 | 0.00 | 34 | 1014.1 |
| 20260506000745 | 75 | 51 | 3.5 | 9.6 | 0.00 | 0.00 | 0.00 | 32 | 1014.1 |
| 20260506000247 | 75 | 5 | 3.5 | 13.0 | 0.00 | 0.00 | 0.00 | 33 | 1014.3 |
| 20260505235745 | 75 | 5 | 3.5 | 13.0 | 0.00 | 0.00 | 0.00 | 33 | 1014.2 |
| 20260505235244 | 75 | 32 | 3.5 | 9.6 | 0.00 | 0.00 | 0.00 | 33 | 1014.1 |
| 20260505234746 | 75 | 19 | 3.5 | 10.4 | 0.00 | 0.00 | 0.00 | 34 | 1014.1 |
| 20260505234243 | 75 | 323 | 4.3 | 10.4 | 0.00 | 0.00 | 0.00 | 34 | 1014.1 |
| 20260505233243 | 75 | 306 | 3.5 | 10.4 | 0.00 | 0.00 | 0.00 | 34 | 1014.1 |
| 20260505232740 | 75 | 320 | 2.6 | 7.8 | 0.00 | 0.00 | 0.00 | 31 | 1014.1 |
| 20260505232242 | 75 | 157 | 3.5 | 8.7 | 0.00 | 0.00 | 0.00 | 34 | 1014.1 |
| 20260505231739 | 75 | 26 | 3.5 | 9.6 | 0.00 | 0.00 | 0.00 | 32 | 1014.2 |
| 20260505231237 | 74 | 0 | 4.3 | 9.6 | 0.00 | 0.00 | 0.00 | 34 | 1014.3 |
| 20260505230737 | 74 | 340 | 4.3 | 11.3 | 0.00 | 0.00 | 0.00 | 32 | 1014.3 |
| 20260505225736 | 75 | 119 | 3.5 | 11.3 | 0.00 | 0.00 | 0.00 | 33 | 1014.3 |
| 20260505225235 | 74 | 47 | 3.5 | 8.7 | 0.00 | 0.00 | 0.00 | 33 | 1014.4 |
| 20260505224734 | 74 | 319 | 4.3 | 11.3 | 0.00 | 0.00 | 0.00 | 31 | 1014.4 |
| 20260505224234 | 74 | 30 | 5.2 | 12.2 | 0.00 | 0.01 | 0.00 | 33 | 1014.4 |
| 20260505223732 | 74 | 287 | 4.3 | 12.2 | 0.00 | 0.02 | 0.00 | 34 | 1014.5 |
| 20260505223233 | 74 | 309 | 3.5 | 9.6 | 0.00 | 0.02 | 0.00 | 34 | 1014.4 |
| 20260505222727 | 74 | 338 | 3.5 | 10.4 | 0.00 | 0.02 | 0.00 | 33 | 1014.5 |
| 20260505222443 | 74 | 18 | 3.5 | 9.6 | 0.00 | 0.02 | 0.00 | 32 | 1014.6 |
| 20260505221715 | 74 | 11 | 4.3 | 9.6 | 0.00 | 0.02 | 0.00 | 34 | 1014.6 |
| 20260505221209 | 74 | 13 | 3.5 | 9.6 | 0.00 | 0.02 | 0.00 | 34 | 1014.8 |
| 20260505220702 | 74 | 128 | 4.3 | 10.4 | 0.00 | 0.02 | 0.00 | 37 | 1014.5 |
| 20260505220155 | 73 | 80 | 4.3 | 10.4 | 0.00 | 0.02 | 0.00 | 36 | 1014.6 |
| 20260505215649 | 73 | 15 | 3.5 | 8.7 | 0.00 | 0.02 | 0.00 | 34 | 1014.6 |
| 20260505214638 | 73 | 61 | 3.5 | 11.3 | 0.00 | 0.02 | 0.00 | 36 | 1014.8 |
| 20260505214357 | 72 | 63 | 4.3 | 11.3 | 0.00 | 0.02 | 0.00 | 35 | 1014.9 |
| 20260505213625 | 72 | 90 | 4.3 | 11.3 | 0.00 | 0.02 | 0.00 | 37 | 1014.8 |
| 20260505213120 | 72 | 17 | 4.3 | 11.3 | 0.00 | 0.02 | 0.00 | 38 | 1014.9 |
| 20260505212614 | 72 | 13 | 4.3 | 10.4 | 0.00 | 0.02 | 0.00 | 36 | 1015.0 |
| 20260505212108 | 72 | 50 | 3.5 | 9.6 | 0.00 | 0.02 | 0.00 | 37 | 1015.1 |
| 20260505211601 | 72 | 279 | 3.5 | 8.7 | 0.00 | 0.02 | 0.00 | 36 | 1015.1 |
| 20260505211055 | 72 | 108 | 3.5 | 8.7 | 0.00 | 0.02 | 0.00 | 36 | 1015.0 |
| 20260505210549 | 72 | 40 | 3.5 | 7.8 | 0.00 | 0.02 | 0.00 | 36 | 1015.1 |
| 20260505205537 | 71 | 13 | 3.5 | 10.4 | 0.00 | 0.02 | 0.00 | 38 | 1015.0 |
| 20260505205034 | 71 | 22 | 4.3 | 11.3 | 0.00 | 0.02 | 0.00 | 40 | 1015.1 |
| 20260505204526 | 71 | 11 | 5.2 | 11.3 | 0.00 | 0.02 | 0.00 | 38 | 1015.1 |
| 20260505204247 | 71 | 84 | 4.3 | 10.4 | 0.00 | 0.02 | 0.00 | 40 | 1015.2 |
| 20260505203514 | 70 | 355 | 4.3 | 10.4 | 0.00 | 0.02 | 0.00 | 38 | 1015.2 |
| 20260505203007 | 70 | 53 | 3.5 | 9.6 | 0.00 | 0.02 | 0.00 | 36 | 1015.2 |
| 20260505202502 | 69 | 330 | 3.5 | 8.7 | 0.00 | 0.02 | 0.00 | 37 | 1015.2 |
| 20260505201956 | 69 | 28 | 3.5 | 10.4 | 0.00 | 0.02 | 0.00 | 38 | 1015.3 |
| 20260505201449 | 69 | 161 | 3.5 | 10.4 | 0.00 | 0.02 | 0.00 | 38 | 1015.4 |
| 20260505200944 | 69 | 113 | 3.5 | 8.7 | 0.00 | 0.02 | 0.00 | 41 | 1015.4 |
| 20260505200438 | 68 | 74 | 3.5 | 9.6 | 0.00 | 0.02 | 0.00 | 44 | 1015.5 |
| 20260505195932 | 68 | 92 | 3.5 | 9.6 | 0.00 | 0.02 | 0.00 | 43 | 1015.5 |
| 20260505195426 | 68 | 348 | 4.3 | 9.6 | 0.00 | 0.02 | 0.00 | 41 | 1015.5 |
| 20260505194920 | 67 | 109 | 4.3 | 9.6 | 0.00 | 0.02 | 0.00 | 43 | 1015.6 |
| 20260505194414 | 67 | 138 | 4.3 | 9.6 | 0.00 | 0.02 | 0.00 | 45 | 1015.5 |
| 20260505193907 | 67 | 134 | 4.3 | 9.6 | 0.00 | 0.02 | 0.00 | 45 | 1015.6 |
| 20260505193401 | 67 | 120 | 2.6 | 8.7 | 0.00 | 0.02 | 0.00 | 46 | 1015.6 |
| 20260505192902 | 67 | 72 | 2.6 | 7.8 | 0.00 | 0.02 | 0.00 | 45 | 1015.8 |
| 20260505192627 | 67 | 92 | 4.3 | 8.7 | 0.00 | 0.02 | 0.00 | 44 | 1015.8 |
| 20260505191902 | 66 | 107 | 4.3 | 9.6 | 0.00 | 0.02 | 0.00 | 43 | 1015.9 |
| 20260505191400 | 66 | 115 | 3.5 | 9.6 | 0.00 | 0.02 | 0.00 | 46 | 1015.8 |
| 20260505190901 | 66 | 140 | 3.5 | 9.6 | 0.00 | 0.02 | 0.00 | 48 | 1015.8 |
| 20260505190400 | 65 | 52 | 4.3 | 9.6 | 0.00 | 0.02 | 0.00 | 48 | 1015.8 |
| 20260505185859 | 65 | 0 | 3.5 | 9.6 | 0.00 | 0.02 | 0.00 | 47 | 1015.9 |
| 20260505185400 | 65 | 21 | 3.5 | 8.7 | 0.00 | 0.02 | 0.00 | 44 | 1015.9 |
| 20260505184900 | 65 | 115 | 4.3 | 7.8 | 0.00 | 0.02 | 0.00 | 44 | 1015.9 |
| 20260505184400 | 65 | 123 | 4.3 | 7.8 | 0.00 | 0.02 | 0.00 | 46 | 1015.9 |
| 20260505183624 | 64 | 38 | 2.6 | 8.7 | 0.00 | 0.02 | 0.00 | 46 | 1016.0 |
| 20260505182900 | 64 | 117 | 2.6 | 8.7 | 0.00 | 0.02 | 0.00 | 48 | 1016.0 |
| 20260505182400 | 64 | 9 | 1.7 | 7.8 | 0.00 | 0.02 | 0.00 | 49 | 1016.0 |
| 20260505181902 | 64 | 78 | 2.6 | 5.2 | 0.00 | 0.02 | 0.00 | 47 | 1016.0 |
| 20260505181359 | 63 | 177 | 2.6 | 8.7 | 0.00 | 0.02 | 0.00 | 46 | 1016.1 |
| 20260505180900 | 63 | 116 | 2.6 | 8.7 | 0.00 | 0.02 | 0.00 | 50 | 1016.1 |
| 20260505175900 | 62 | 57 | 2.6 | 8.7 | 0.00 | 0.02 | 0.00 | 56 | 1016.0 |
| 20260505175623 | 62 | 336 | 2.6 | 8.7 | 0.00 | 0.02 | 0.00 | 57 | 1016.0 |
| 20260505174859 | 62 | 92 | 2.6 | 7.0 | 0.00 | 0.02 | 0.00 | 61 | 1016.0 |
| 20260505174400 | 61 | 44 | 2.6 | 7.8 | 0.00 | 0.02 | 0.00 | 63 | 1015.9 |
| 20260505173120 | 60 | 355 | 2.6 | 9.6 | 0.00 | 0.02 | 0.00 | 62 | 1015.9 |
| 20260505172400 | 60 | 54 | 1.7 | 7.0 | 0.00 | 0.02 | 0.00 | 66 | 1015.9 |
| 20260505171859 | 60 | 114 | 2.6 | 5.2 | 0.00 | 0.02 | 0.00 | 66 | 1015.9 |
| 20260505171400 | 60 | 124 | 2.6 | 6.1 | 0.00 | 0.02 | 0.00 | 69 | 1015.8 |
| 20260505170858 | 60 | 44 | 2.6 | 7.8 | 0.00 | 0.02 | 0.00 | 69 | 1015.9 |
| 20260505170357 | 59 | 67 | 1.7 | 8.7 | 0.00 | 0.02 | 0.00 | 69 | 1015.8 |
| 20260505165858 | 59 | 351 | 1.7 | 8.7 | 0.00 | 0.02 | 0.00 | 70 | 1015.8 |
| 20260505165358 | 58 | 74 | 2.6 | 7.8 | 0.00 | 0.02 | 0.00 | 71 | 1015.9 |
| 20260505165129 | 58 | 95 | 2.6 | 7.8 | 0.00 | 0.02 | 0.00 | 72 | 1015.8 |
| 20260505164357 | 58 | 136 | 2.6 | 6.1 | 0.00 | 0.02 | 0.00 | 70 | 1015.8 |
| 20260505163858 | 57 | 17 | 4.3 | 9.6 | 0.00 | 0.02 | 0.00 | 74 | 1015.6 |
| 20260505163357 | 57 | 49 | 4.3 | 9.6 | 0.00 | 0.02 | 0.00 | 75 | 1015.8 |
| 20260505163130 | 57 | 0 | 2.6 | 9.6 | 0.00 | 0.02 | 0.00 | 73 | 1015.6 |
| 20260505162357 | 56 | 113 | 1.7 | 5.2 | 0.00 | 0.02 | 0.00 | 74 | 1015.5 |
| 20260505161858 | 56 | 17 | 2.6 | 7.8 | 0.00 | 0.02 | 0.00 | 77 | 1015.6 |
| 20260505161357 | 55 | 32 | 3.5 | 7.8 | 0.00 | 0.02 | 0.00 | 77 | 1015.6 |
| 20260505160858 | 55 | 9 | 2.6 | 7.0 | 0.00 | 0.02 | 0.00 | 79 | 1015.8 |
| 20260505160358 | 54 | 355 | 3.5 | 7.8 | 0.00 | 0.02 | 0.00 | 78 | 1015.8 |
| 20260505152847 | 51 | 57 | 2.6 | 5.2 | 0.00 | 0.02 | 0.00 | 1 | 1015.6 |
| 20260505152341 | 51 | 19 | 2.6 | 5.2 | 0.00 | 0.02 | 0.00 | 1 | 1015.5 |
| 20260505151329 | 49 | 10 | 0.9 | 4.3 | 0.00 | 0.02 | 0.00 | 1 | 1015.5 |
| 20260505150823 | 48 | 0 | 0.9 | 3.5 | 0.00 | 0.02 | 0.00 | 1 | 1015.4 |
| 20260505150540 | 47 | 349 | 0.0 | 0.0 | 0.00 | 0.02 | 0.00 | 1 | 1015.6 |
| 20260505140205 | 40 | 349 | 0.0 | 0.0 | 0.00 | 0.02 | 0.00 | 31 | 1015.0 |
| 20260505124536 | 41 | 349 | 0.0 | 0.0 | 0.00 | 0.02 | 0.00 | 47 | 1014.8 |
| 20260505124030 | 41 | 349 | 0.0 | 0.0 | 0.00 | 0.02 | 0.00 | 52 | 1014.8 |
| 20260505123524 | 41 | 349 | 0.0 | 0.0 | 0.00 | 0.02 | 0.00 | 53 | 1014.6 |
| 20260505123016 | 42 | 349 | 0.0 | 0.0 | 0.00 | 0.02 | 0.00 | 51 | 1014.6 |
| 20260505122511 | 42 | 349 | 0.0 | 0.0 | 0.00 | 0.02 | 0.00 | 50 | 1014.6 |
| 20260505121501 | 42 | 349 | 0.0 | 0.0 | 0.00 | 0.02 | 0.00 | 47 | 1014.5 |
| 20260505120955 | 42 | 349 | 0.0 | 0.0 | 0.00 | 0.02 | 0.00 | 45 | 1014.4 |
| 20260505120447 | 43 | 349 | 0.0 | 0.0 | 0.00 | 0.02 | 0.00 | 41 | 1014.4 |
| 20260505120201 | 43 | 349 | 0.0 | 0.0 | 0.00 | 0.02 | 0.00 | 38 | 1014.4 |
| 20260505115435 | 43 | 349 | 0.0 | 0.0 | 0.00 | 0.02 | 0.00 | 40 | 1014.4 |
| 20260505114930 | 43 | 349 | 0.0 | 0.0 | 0.00 | 0.02 | 0.00 | 41 | 1014.4 |